Wind_Speed
11 13 15 13 8 8 18 20 20 3 3 5 3 6 13 18 15 5 18 12 24 27 25 24 21 20 25 27 26 23 24 23 21 20 23 21 19 17 15 13 11 11 11 11 11 12 11 10 9
12 14 14 9 10 15 15 20 15 9 10 3 4 4 3 16 13 15 13 23 26 27 25 22 22 21 24 28 26 25 24 22 20 20 22 20 17 15 13 11 10 10 11 11 11 10 8 7 6
11 13 9 11 16 18 18 22 11 12 5 7 6 6 5 10 9 8 23 25 26 26 25 24 24 22 23 26 25 25 23 21 20 20 21 19 16 14 13 11 10 10 11 11 10 9 7 6 5
11 12 10 16 23 25 27 7 11 14 11 7 5 10 8 4 5 11 23 27 26 27 24 26 25 23 25 26 26 24 23 21 19 20 20 19 16 13 11 11 10 9 10 10 10 9 8 6 5
20 10 13 19 25 26 23 4 2 8 16 13 8 11 10 10 9 21 25 26 26 27 24 27 26 24 25 26 25 23 22 20 19 20 20 18 15 12 10 9 9 9 9 9 8 7 8 6 4
11 14 14 22 25 27 22 8 6 16 10 7 9 10 8 9 18 23 24 24 25 25 25 24 26 25 24 25 25 23 22 20 19 21 20 18 14 12 10 9 8 8 7 7 8 7 6 6 6
20 17 23 24 25 25 27 13 16 15 7 11 6 6 8 12 20 23 24 24 25 24 26 23 22 23 23 23 22 22 22 20 20 21 19 17 14 12 10 7 7 7 7 6 6 7 7 8 8
17 17 27 26 22 27 24 20 14 18 13 11 1 3 13 12 20 23 25 25 25 25 24 24 23 21 19 19 22 22 21 20 20 20 19 16 14 11 9 7 7 8 8 7 7 8 8 9 10
23 17 23 30 27 22 20 17 18 14 14 7 5 6 17 13 17 23 25 25 25 25 24 26 24 24 21 19 20 22 21 21 21 20 18 16 12 11 9 8 12 8 9 9 9 9 9 10 11
21 21 30 23 22 22 19 21 19 16 13 10 10 9 11 14 15 19 22 24 25 25 25 25 25 23 22 19 18 17 16 16 16 16 17 15 13 12 11 12 11 10 9 9 9 10 10 11 10
28 25 23 24 22 22 19 16 14 19 19 15 17 15 11 14 17 17 19 23 24 25 25 25 24 24 22 20 19 17 17 16 16 16 16 16 14 13 14 10 10 10 9 8 11 9 9 9 11
25 28 26 21 17 11 15 12 21 16 16 12 6 19 12 12 15 17 20 22 24 24 23 23 24 24 22 19 19 18 17 17 16 17 17 16 15 14 13 13 11 12 11 9 10 9 10 9 10
31 23 25 26 15 13 14 17 17 15 18 9 6 8 12 11 12 16 20 21 23 23 23 23 23 22 21 18 18 18 17 17 15 16 17 16 15 14 14 14 14 12 12 12 10 11 10 11 11
21 25 20 27 17 17 22 20 17 18 14 9 10 12 13 12 11 12 16 18 22 22 22 21 21 20 20 19 16 16 16 15 15 15 16 17 14 13 12 13 14 14 14 13 12 12 12 12 12
25 24 25 21 22 18 18 21 24 18 14 15 16 14 11 12 13 13 15 17 18 20 21 20 20 20 19 18 15 15 15 15 15 15 15 16 16 10 12 13 14 14 14 14 13 12 12 13 13
21 19 23 25 24 23 21 24 23 21 18 17 19 15 11 11 14 14 15 16 17 16 19 19 20 20 19 18 16 15 14 14 13 13 13 15 16 14 11 14 15 15 14 14 14 13 13 14 14
20 25 25 28 25 20 23 17 23 20 20 19 18 17 14 12 11 13 14 17 14 17 19 20 19 18 19 17 15 14 13 12 13 8 10 13 18 19 20 16 17 14 15 15 13 14 13 13 14
29 32 25 26 24 26 22 19 17 21 21 20 19 18 16 15 12 15 15 14 15 16 17 20 20 18 16 16 15 14 14 12 13 14 14 15 16 18 14 16 17 15 17 16 13 14 13 14 15
23 24 24 24 21 24 24 21 19 22 19 20 19 18 18 16 15 16 15 15 13 15 15 14 17 18 17 17 17 16 15 14 16 16 17 14 17 15 16 15 16 18 20 17 12 15 15 15 15
26 24 27 21 18 21 22 22 17 14 18 20 20 19 18 17 16 16 16 15 13 12 13 15 14 14 16 14 14 13 14 16 17 16 18 17 19 17 18 18 17 21 20 17 14 14 14 16 15
27 24 26 22 17 17 21 20 27 19 18 22 22 19 18 18 17 16 15 14 14 12 12 13 14 15 15 15 14 12 10 10 12 15 16 17 19 18 17 17 19 17 18 14 14 15 17 17 18
27 18 21 22 18 15 25 14 23 22 20 22 24 23 21 20 16 14 14 16 14 13 11 10 11 12 13 14 17 14 13 14 15 17 12 12 17 15 16 18 16 17 15 14 13 15 18 18 19
21 18 21 21 19 20 20 17 24 20 20 24 23 23 22 19 18 17 16 18 16 13 10 12 9 9 10 11 14 13 17 16 17 8 8 5 7 6 12 13 11 14 10 12 15 15 18 19 19
22 25 17 15 16 17 24 19 17 26 27 23 21 19 18 18 17 16 16 13 13 13 15 11 9 6 7 10 10 13 10 14 5 6 3 6 6 2 2 5 8 7 8 11 13 17 17 17 19
22 23 16 16 15 16 18 19 7 22 24 26 24 23 20 18 17 15 16 15 18 17 11 14 9 6 5 6 8 8 9 8 4 4 3 2 5 5 7 6 7 7 10 9 11 12 12 13 17
27 25 16 28 19 15 21 13 9 11 15 19 21 20 20 18 16 16 16 16 17 16 15 10 9 7 6 4 4 4 5 7 10 10 9 8 5 4 6 8 8 8 8 9 10 11 10 13 11
29 24 23 16 16 15 18 8 14 16 12 12 14 13 15 16 15 15 13 13 11 12 6 10 15 15 13 11 12 14 14 14 12 9 7 6 4 3 7 8 9 10 11 12 14 14 13 13 15
23 25 12 10 19 15 15 15 14 16 16 15 14 11 13 12 10 8 10 10 10 19 18 15 17 18 14 15 16 16 16 14 12 10 9 7 5 7 7 7 7 9 10 12 14 15 15 16 16
16 16 12 7 17 11 14 13 20 17 17 13 13 14 17 14 14 14 13 16 16 15 18 20 22 19 18 18 18 17 15 13 12 10 8 8 8 10 9 9 8 9 11 12 13 14 16 17 18
20 23 16 8 9 11 12 9 17 14 12 15 17 17 13 14 15 15 16 20 22 24 23 22 22 20 19 17 17 16 14 11 10 8 8 8 9 9 10 10 10 10 12 12 13 15 16 18 18
Wind_Direction
253 269 268 266 243 232 247 232 252 143 180 69 36 325 30 36 16 59 125 137 136 142 152 152 161 155 164 168 168 165 161 158 157 157 156 155 153 147 143 141 136 131 131 132 132 131 122 114 108
247 248 251 268 243 243 231 239 190 233 82 120 162 171 138 70 69 115 121 137 140 146 150 151 161 155 164 171 170 166 163 159 159 160 160 159 158 154 149 146 141 137 137 140 142 142 133 124 118
243 237 259 230 235 241 244 211 163 199 114 213 180 359 63 96 100 98 130 141 140 148 151 159 160 161 166 173 171 168 164 162 161 162 164 162 161 157 152 150 150 151 150 152 155 157 155 150 139
216 222 243 257 240 226 254 265 183 143 181 199 79 113 95 69 124 118 142 143 145 150 152 162 162 163 168 174 174 172 168 166 164 166 167 165 162 157 153 152 157 159 163 166 166 171 174 177 171
227 227 227 231 236 249 221 240 96 197 187 179 170 129 108 96 112 133 145 146 151 151 154 158 165 164 170 175 177 176 174 172 170 170 170 168 164 161 158 159 161 166 175 180 182 186 192 206 216
210 227 226 227 229 230 252 169 189 247 189 169 213 127 103 128 132 144 148 152 152 150 152 158 167 166 169 175 179 180 180 179 177 174 174 171 171 170 168 167 169 174 183 192 200 208 219 237 255
224 210 230 238 223 229 228 196 213 221 217 220 84 210 114 139 140 149 152 155 151 151 153 157 160 168 171 174 177 181 183 184 180 176 177 176 176 176 175 179 182 186 190 200 214 225 238 246 256
227 241 232 236 243 227 208 179 219 218 215 84 54 212 149 121 149 151 155 157 154 157 157 160 163 165 166 172 178 180 182 182 180 179 179 179 181 184 185 191 198 196 197 205 217 228 239 250 256
221 232 234 228 229 239 220 178 213 228 229 155 95 23 95 143 159 162 158 160 160 164 164 166 168 167 167 169 178 180 181 180 180 181 184 184 182 190 204 199 213 214 208 215 222 231 243 254 263
215 225 231 239 235 235 236 187 204 213 212 170 164 101 138 157 171 175 169 168 169 168 170 171 172 172 169 172 177 175 179 180 181 182 187 183 193 197 205 202 223 222 218 228 237 243 252 257 257
216 229 228 238 243 240 230 200 204 213 212 205 180 154 166 166 173 185 183 175 174 174 174 173 174 173 175 174 177 180 183 186 189 191 190 195 198 201 207 209 221 220 228 230 242 245 261 240 260
215 225 246 228 246 239 232 220 216 219 216 206 134 136 166 173 177 186 186 179 177 176 179 175 178 180 188 180 183 188 190 192 194 197 196 201 204 208 214 218 216 211 210 222 221 240 243 262 267
220 224 220 247 238 221 232 230 215 203 232 119 156 140 173 179 182 193 187 178 178 179 182 182 181 185 192 193 190 197 198 198 202 199 203 204 211 210 215 220 224 220 222 226 229 237 250 254 253
217 224 234 222 238 205 224 227 224 223 216 175 187 194 181 174 177 186 190 179 182 178 184 187 186 188 196 200 198 203 204 201 208 209 210 210 216 209 221 225 231 232 228 228 232 233 244 245 254
226 218 228 220 214 207 213 227 211 215 217 189 204 202 186 171 172 182 185 184 183 179 187 192 191 191 201 205 209 212 212 220 212 216 213 212 213 220 218 232 230 235 236 231 236 240 241 250 253
218 212 214 215 208 214 204 218 212 212 197 204 205 191 176 175 170 182 177 182 186 181 187 193 198 196 201 205 213 217 225 220 221 223 223 217 213 205 227 247 240 235 233 229 236 237 243 247 252
209 214 218 203 204 208 209 226 201 198 214 204 197 193 179 166 172 165 175 172 181 190 184 200 207 207 202 208 211 217 224 221 224 228 229 230 227 220 193 222 239 236 238 233 230 241 245 256 260
200 212 204 214 188 209 194 227 227 179 207 205 194 200 191 173 179 166 168 173 177 189 190 194 201 209 204 206 212 217 219 223 232 229 226 229 233 232 225 226 246 232 235 235 226 238 246 254 271
203 204 218 206 188 197 214 207 214 180 204 201 197 195 198 199 173 173 179 174 181 192 191 197 200 201 208 208 209 213 219 225 228 230 220 226 237 230 226 230 247 237 246 233 224 231 240 254 259
227 189 216 188 186 191 205 204 202 203 204 210 207 197 201 196 193 172 180 183 184 185 198 198 199 197 200 216 224 228 218 231 233 241 233 233 236 232 224 228 237 236 235 227 224 231 244 252 256
226 205 196 199 160 188 200 213 214 180 202 213 212 203 204 201 199 174 178 183 184 191 195 205 207 207 207 217 209 217 245 253 234 244 243 240 236 233 226 225 232 250 244 237 234 234 237 247 256
211 208 197 200 166 192 201 204 207 202 197 209 208 209 206 205 208 213 192 180 193 191 189 188 197 207 215 221 233 220 236 240 237 244 263 229 238 217 235 236 234 247 249 262 253 242 245 243 254
209 186 212 191 183 193 191 231 192 201 197 204 206 205 206 200 212 221 224 204 193 191 197 186 195 206 225 214 232 220 236 253 250 251 267 257 262 276 264 261 253 258 259 272 268 261 256 253 260
204 189 191 187 186 221 176 220 215 191 199 192 199 204 210 217 219 215 215 224 223 212 199 173 160 189 207 220 219 244 255 247 259 223 223 247 235 244 24 358 321 320 330 308 301 284 282 277 271
202 190 171 186 196 212 177 200 122 177 194 193 196 203 212 216 221 221 217 220 223 224 212 140 141 158 192 207 217 224 243 245 274 256 226 153 73 46 13 33 30 12 7 351 332 311 310 305 310
191 190 173 180 185 189 183 196 196 142 178 192 190 195 200 207 211 215 217 209 219 212 228 126 120 142 152 142 154 113 105 92 80 61 65 54 70 59 28 27 13 6 359 351 337 324 326 325 316
185 197 194 189 188 188 156 171 130 141 150 157 156 170 181 192 206 200 206 206 213 216 137 105 100 89 88 95 98 91 87 79 78 74 79 77 48 57 42 24 10 353 349 349 341 333 330 322 321
197 202 206 231 185 160 169 175 150 163 159 161 162 168 190 193 193 155 83 81 94 85 91 103 104 107 119 113 104 96 92 89 85 79 72 65 47 37 29 18 359 343 337 338 338 329 321 320 309
189 221 233 236 202 173 170 172 142 169 173 144 143 128 91 100 95 95 98 99 105 111 103 97 104 110 107 101 96 90 85 82 77 69 55 38 25 15 0 345 338 324 329 331 325 319 310 309 305
190 200 212 204 170 168 147 97 150 125 119 126 116 102 114 112 112 122 112 102 104 109 118 120 113 107 98 93 89 87 84 77 67 55 36 22 14 359 346 335 337 337 333 331 323 317 316 313 314
Height
769 768 764 757 768 747 740 724 689 698 707 697 699 700 706 706 718 752 728 734 741 752 759 762 767 770 774 777 781 785 788 790 793 796 798 801 804 806 807 808 809 810 812 814 816 816 816 816 816
768 765 762 750 762 756 734 700 703 701 697 700 701 703 706 729 716 723 731 737 744 754 760 765 767 771 775 779 782 786 789 792 794 798 800 803 806 808 809 810 812 813 814 815 817 817 818 819 818
765 763 758 753 751 750 723 693 692 693 697 702 702 699 708 729 721 723 732 740 748 756 762 766 768 772 776 781 784 787 790 793 795 799 802 805 808 809 810 811 813 814 815 816 817 818 819 819 819
762 759 754 753 743 726 708 683 685 695 701 698 700 714 719 724 722 728 737 742 750 757 763 766 770 773 778 782 785 788 791 794 796 800 803 806 809 811 812 813 814 815 817 818 818 819 820 820 820
757 747 756 748 739 714 698 690 690 703 702 701 701 715 724 725 726 733 739 744 750 756 764 768 772 775 779 783 787 790 793 795 798 800 804 808 810 812 814 815 815 817 818 819 820 821 821 822 822
752 742 747 747 730 714 696 689 703 705 698 700 708 709 722 724 728 734 741 746 751 757 766 771 774 777 781 783 787 791 794 796 799 801 805 808 811 813 814 815 816 818 819 820 821 822 823 824 825
743 740 740 726 723 713 703 694 709 709 705 705 697 716 721 721 728 734 740 747 752 761 766 773 777 780 783 786 789 792 795 797 800 802 806 809 811 813 815 817 817 818 819 821 822 823 823 823 824
735 730 733 721 719 711 691 695 700 705 708 703 709 716 729 725 729 735 740 746 754 761 767 773 778 781 785 788 790 792 795 798 801 804 806 809 811 813 815 816 817 819 819 820 820 821 822 822 822
732 738 729 717 716 704 684 699 699 697 704 709 711 714 719 730 732 734 738 745 752 759 767 771 777 781 785 789 791 794 796 798 801 804 806 809 812 813 814 816 817 817 818 818 819 820 821 821 821
727 731 718 704 698 699 687 696 703 709 715 713 723 726 729 732 733 733 736 741 749 757 764 769 775 780 784 789 793 796 799 801 803 805 806 809 811 813 814 815 816 817 817 818 819 819 819 819 818
720 720 713 701 695 690 689 695 703 707 719 709 716 725 729 731 733 735 737 741 748 756 763 767 774 779 782 786 792 795 798 800 803 805 806 808 809 811 813 813 815 816 815 817 817 818 818 817 817
721 715 709 702 692 698 698 695 709 699 707 698 703 713 728 729 731 732 737 741 747 754 762 768 773 778 781 783 789 792 794 797 800 803 805 807 808 809 810 810 811 813 813 814 815 816 816 816 817
712 709 710 703 696 707 707 705 707 711 701 703 711 717 724 728 730 731 734 739 746 754 761 767 773 778 780 783 786 788 791 794 798 801 803 805 806 806 808 809 809 809 810 811 812 812 813 813 812
705 708 705 706 704 711 717 713 711 708 705 709 716 723 721 727 730 733 734 738 745 753 760 766 772 778 781 783 785 788 791 792 795 798 800 803 805 805 806 808 809 808 807 807 808 808 809 810 808
703 714 712 705 709 713 713 722 717 707 706 711 718 719 719 723 729 734 738 741 746 753 760 765 771 776 780 783 786 788 790 791 793 795 798 800 802 803 804 806 805 805 806 805 805 806 807 808 807
711 712 720 705 708 708 713 726 709 706 709 718 717 717 722 723 728 734 738 744 749 754 760 765 769 773 779 781 785 788 788 790 791 793 794 797 797 798 802 805 803 802 803 803 803 804 804 803 802
711 713 714 707 701 707 712 722 702 703 709 717 714 715 721 725 728 733 736 744 751 756 760 766 768 771 776 781 784 786 788 789 789 791 792 795 796 793 785 795 799 801 802 801 798 800 800 800 800
700 708 703 704 700 707 715 718 698 703 707 715 712 713 718 722 727 734 737 743 750 754 759 763 767 771 774 779 783 784 785 787 789 790 791 792 794 795 793 791 796 797 799 798 794 797 796 796 797
687 700 699 696 686 709 711 717 704 700 707 713 711 714 716 718 722 732 736 742 747 752 756 761 765 768 773 776 777 780 782 785 786 787 786 788 792 790 790 790 794 795 797 793 790 791 792 793 793
686 691 702 687 684 704 711 714 701 707 711 708 709 711 713 715 718 726 734 740 746 751 755 760 763 767 771 774 775 776 778 780 782 783 783 784 787 786 786 786 788 790 791 789 786 787 787 788 788
688 682 693 688 693 704 711 718 711 704 706 706 705 705 709 713 716 721 731 738 744 749 754 758 762 765 769 771 773 776 777 778 777 779 779 780 781 781 781 781 783 786 787 784 783 783 784 784 784
696 677 679 684 703 722 702 724 709 703 709 706 704 704 707 710 715 719 725 733 741 745 750 755 759 763 766 769 770 773 774 773 773 774 774 774 774 770 779 779 779 782 783 781 781 781 782 782 780
686 683 684 688 707 700 706 707 694 701 708 705 700 701 702 708 714 719 722 727 734 741 745 751 757 762 765 766 768 772 774 771 770 770 773 775 774 774 779 780 779 781 778 777 778 779 781 779 780
671 685 685 693 702 718 697 705 680 688 693 699 700 701 705 708 710 714 719 725 731 736 740 746 755 761 763 766 767 770 771 770 768 770 775 776 777 778 778 779 781 780 775 777 776 777 776 776 776
678 684 704 718 719 705 679 704 665 668 676 684 696 701 704 707 710 714 719 724 730 734 738 746 755 760 764 766 768 770 771 771 773 774 776 777 778 780 783 779 778 779 776 777 778 777 773 771 772
681 675 681 707 702 690 677 701 677 663 667 674 681 689 696 702 705 710 714 720 726 732 737 744 755 760 764 768 769 770 771 773 774 777 777 778 780 784 783 781 781 781 779 777 776 774 772 770 768
679 684 655 670 665 676 678 679 672 673 680 679 683 687 694 698 701 706 712 719 726 732 738 747 755 762 769 772 772 773 774 776 778 781 782 785 786 785 780 781 782 783 781 778 776 773 771 770 769
670 658 681 667 692 700 694 692 694 691 690 688 690 696 698 700 703 708 716 726 732 741 751 758 762 769 776 776 776 778 780 781 784 786 787 788 789 785 783 782 782 783 782 779 778 777 775 771 770
676 679 667 661 658 683 703 693 669 685 683 688 692 697 707 713 716 724 731 741 746 751 756 764 769 775 779 780 781 783 785 787 788 790 791 790 788 786 786 786 782 783 780 779 780 778 774 772 770
665 674 663 672 675 663 680 703 666 676 683 691 699 717 728 728 734 738 742 748 754 761 767 771 775 779 783 785 786 787 788 790 792 793 792 790 788 789 789 788 785 781 780 778 779 776 774 771 767